This demonstration page uses our WeatherBlox Daily Observations layout. Learn more.

Left ArrowRight Arrow

Hourly Observations for October 28, 2021

Temp ( °F °C ) Dew Point ( °F °C ) Humidity (%) Winds ( mph kmh ) Pressure ( in mb ) Visibility ( mi km ) Precip ( " mm )
12:15 am 00:15 Clear 36 2 32 undefined 87 87 WNW 8 13 29.93 1013 10 16 N/A
12:35 am 00:35 Clear 36 2.2 32 undefined 86 86 NW 8 13 29.91 1013 10 16 N/A
12:55 am 00:55 Clear 37 3 32 0.2 82 82 NW 10 17 29.92 1013 10 16 N/A
1:15 am 01:15 Clear 39 3.8 33 0.3 78 78 NW 10 17 29.91 1013 10 16 N/A
1:35 am 01:35 Clear 39 4.1 33 0.5 78 78 NW 14 22 29.91 1013 10 16 N/A
1:55 am 01:55 Clear 44 6.4 33 0.8 68 68 NNW 18 30 29.88 1012 10 16 N/A
2:15 am 02:15 Clear 45 7.2 33 0.8 64 64 NNW 16 26 29.88 1012 10 16 N/A
2:35 am 02:35 Clear 46 7.6 34 1 63 63 NNW 20 31 29.87 1012 10 16 N/A
2:55 am 02:55 Clear 47 8.2 34 1 61 61 NNW 22 35 29.88 1012 10 16 N/A
3:15 am 03:15 Clear 47 8.2 34 0.9 60 60 NNW 24 39 29.89 1012 10 16 N/A
3:35 am 03:35 Clear 47 8.2 33 0.7 60 60 NW 22 35 29.89 1012 10 16 N/A
3:55 am 03:55 Clear 47 8.1 33 0.6 59 59 NNW 23 37 29.90 1012 10 16 N/A
4:15 am 04:15 Clear 47 8.1 33 0.5 59 59 NNW 21 33 29.90 1012 10 16 N/A
4:35 am 04:35 Clear 46 7.9 33 0.3 59 59 NNW 20 31 29.90 1013 10 16 N/A
4:55 am 04:55 Clear 46 7.7 32 0.1 59 59 NNW 23 37 29.90 1013 10 16 N/A
5:15 am 05:15 Clear 46 7.8 32 undefined 58 58 NNW 24 39 29.90 1013 10 16 N/A
5:35 am 05:35 Clear 46 7.7 32 -0.1 58 58 NNW 20 31 29.91 1013 10 16 N/A
5:55 am 05:55 Clear 46 7.7 31 -0.5 56 56 NNW 24 39 29.91 1013 10 16 N/A
6:15 am 06:15 Clear 46 7.6 30 -1 55 55 NNW 23 37 29.92 1013 10 16 N/A
6:35 am 06:35 Clear 45 7.3 30 -1.2 55 55 NNW 21 33 29.93 1013 10 16 N/A
6:55 am 06:55 Clear 46 7.5 29 -1.5 53 53 NNW 23 37 29.92 1013 10 16 N/A
7:15 am 07:15 Clear 45 7.3 29 -1.6 54 54 NNW 22 35 29.94 1014 10 16 N/A
7:35 am 07:35 Clear 45 7.3 29 -1.7 53 53 NNW 22 35 29.94 1014 10 16 N/A
7:55 am 07:55 Clear 45 7.1 29 -1.7 54 54 NNW 24 39 29.95 1014 10 16 N/A
8:15 am 08:15 Sunny 45 7.3 29 -1.8 53 53 NNW 22 35 29.96 1014 10 16 N/A
8:35 am 08:35 Sunny 46 7.6 28 -2 51 51 NNW 26 43 29.96 1015 10 16 N/A
8:55 am 08:55 Sunny 46 8 29 -1.7 51 51 NNW 25 41 29.97 1015 10 16 N/A
9:15 am 09:15 Sunny 47 8.5 29 -1.6 49 49 NNW 26 43 29.98 1015 10 16 N/A
9:35 am 09:35 Sunny 48 9.1 29 -1.5 48 48 NNW 25 41 29.98 1015 10 16 N/A
9:55 am 09:55 Sunny 49 9.7 30 -1.3 47 47 NNW 25 41 29.97 1015 10 16 N/A
10:15 am 10:15 Sunny 51 10.5 30 -1 45 45 NNW 32 52 29.97 1015 10 16 N/A
10:35 am 10:35 Sunny 52 11.2 30 -1.1 43 43 NNW 35 56 29.96 1015 10 16 N/A
10:55 am 10:55 Sunny 54 12 29 -1.4 40 40 NNW 35 56 29.95 1014 10 16 N/A
11:15 am 11:15 Sunny 55 12.8 29 -1.6 37 37 NNW 31 50 29.96 1014 10 16 N/A
11:35 am 11:35 Sunny 56 13.3 28 -2 35 35 NNW 32 52 29.95 1014 10 16 N/A
11:55 am 11:55 Sunny 58 14.2 28 -2 33 33 NNW 33 54 29.94 1014 10 16 N/A
12:15 pm 12:15 Sunny 58 14.7 29 -1.8 32 32 NNW 35 56 29.95 1014 10 16 N/A
12:35 pm 12:35 Sunny 58 14.7 28 -2.1 32 32 NNW 36 57 29.95 1014 10 16 N/A
12:55 pm 12:55 Sunny 59 15.1 28 -2 31 31 NNW 35 56 29.94 1014 10 16 N/A
1:15 pm 13:15 Sunny 59 15.1 27 -2.8 29 29 NNW 38 61 29.94 1014 10 16 N/A
1:35 pm 13:35 Sunny 60 15.4 27 -3 28 28 NNW 38 61 29.94 1014 10 16 N/A
1:55 pm 13:55 Sunny 60 15.6 26 -3.3 27 27 NNW 31 50 29.94 1014 10 16 N/A
2:15 pm 14:15 Sunny 60 15.6 26 -3.6 27 27 NNW 39 63 29.94 1014 10 16 N/A
2:35 pm 14:35 Sunny 60 15.5 25 -4.1 26 26 NNW 36 57 29.94 1014 10 16 N/A
2:55 pm 14:55 Sunny 60 15.7 24 -4.3 25 25 NNW 39 63 29.94 1014 10 16 N/A
3:15 pm 15:15 Sunny 60 15.6 24 -4.7 25 25 NNW 36 57 29.94 1014 10 16 N/A
3:35 pm 15:35 Sunny 60 15.7 23 -5 24 24 N 33 54 29.94 1014 10 16 N/A
3:55 pm 15:55 Sunny 61 15.9 23 -5.2 23 23 N 33 54 29.95 1014 10 16 N/A
4:15 pm 16:15 Sunny 60 15.4 20 -6.4 22 22 N 33 54 29.95 1014 10 16 N/A
4:35 pm 16:35 Sunny 59 15.2 21 -5.9 23 23 NNW 39 63 29.96 1015 10 16 N/A
4:55 pm 16:55 Sunny 59 15 22 -5.5 24 24 N 31 50 29.97 1015 10 16 N/A
5:15 pm 17:15 Sunny 58 14.7 22 -5.3 25 25 N 28 44 29.98 1015 10 16 N/A
5:35 pm 17:35 Sunny 58 14.3 22 -5.5 25 25 N 35 56 29.99 1016 10 16 N/A
5:55 pm 17:55 Sunny 57 13.8 23 -4.9 27 27 NNW 26 43 30.00 1016 10 16 N/A
6:15 pm 18:15 Sunny 55 13 24 -4.6 29 29 NNW 25 41 30.01 1016 10 16 N/A
6:35 pm 18:35 Sunny 54 12.4 23 -4.8 30 30 N 26 43 30.02 1017 10 16 N/A
6:55 pm 18:55 Clear 53 11.6 24 -4.5 32 32 NNW 18 30 30.04 1017 10 16 N/A
7:15 pm 19:15 Clear 51 10.8 24 -4.2 35 35 NNW 14 22 30.05 1018 10 16 N/A
7:35 pm 19:35 Clear 50 10.1 25 -4 37 37 NNW 12 19 30.07 1018 10 16 N/A
7:55 pm 19:55 Clear 49 9.3 25 -3.8 40 40 NNW 13 20 30.09 1019 10 16 N/A
8:15 pm 20:15 Clear 48 9 25 -4 40 40 NNW 13 20 30.09 1019 10 16 N/A
8:35 pm 20:35 Clear 49 9.5 24 -4.5 37 37 NNW 14 22 30.09 1019 10 16 N/A
8:55 pm 20:55 Clear 47 8.5 24 -4.3 40 40 NW 13 20 30.11 1019 10 16 N/A
9:15 pm 21:15 Clear 44 6.7 25 -4 47 47 WNW 12 19 30.13 1020 10 16 N/A
9:35 pm 21:35 Clear 43 6.2 25 -3.8 49 49 NW 14 22 30.15 1021 10 16 N/A
9:55 pm 21:55 Clear 43 6.2 25 -3.8 49 49 NW 14 22 30.15 1021 10 16 N/A
10:15 pm 22:15 Clear 41 5.1 25 -3.7 53 53 NW 13 20 30.17 1022 10 16 N/A
10:35 pm 22:35 Clear 40 4.5 26 -3.6 56 56 NW 12 19 30.17 1022 10 16 N/A
10:55 pm 22:55 Clear 38 3.6 26 -3.5 60 60 NW 9 15 30.18 1022 10 16 N/A
11:15 pm 23:15 Clear 38 3.2 26 -3.3 63 63 WNW 9 15 30.20 1023 10 16 N/A
11:35 pm 23:35 Clear 37 2.9 26 -3.1 65 65 NW 12 19 30.20 1023 10 16 N/A
11:55 pm 23:55 Clear 37 2.9 27 -3 66 66 NW 12 19 30.20 1023 10 16 N/A

Powered by AerisWeather